Content
SEND FEEDBACK

Daily
Averages
Monthly
Summary
Iran

BOJNURD, IRAN


Home > Middle East > Iran
Elevation: 3694 feet     Latitude: 37 28N     Longitude: 057 20E

WEATHER
 
SELECT A DAY
Number of Records: 34,119;   Date Range: 5/9/03 - 9/29/14
 
SHARE

PRINT THIS DATA

[ ← Previous Day ]
WEATHER ALMANAC - MAY 6, 2013
[ Next Day → ]
[ °C ]   °F
Weather ElementAverageHighLow
Temperature67.1 °F79 °F (4:30 pm)46.4 °F (6:30 am)
Dewpoint29 °F44.6 °F (10:30 pm)10.4 °F (2:30 pm)
Humidity28.5 %66 % (6:30 am)6 % (4:30 pm)
Barometer30.01 in30.15 in (4:30 am)29.86 in (4:30 pm)
Wind Speed2.7 mph16.1 mph (8:30 pm)
Weather ElementAverage
Visibility6 mi
Wind DirectionENE (64.2 °)

Weather ElementTotal
Precipitation---
Heating Degree Days2.3 (Base 65)
Growing Degree Days12.7 (Base 50)
Averaged from 21 records on May 6, 2013
WEATHER CONDITIONS BREAKOUT
WIND DIRECTION BREAKOUT
WEATHER BY HOUR - MAY 6, 2013
[ °C ]   °F
Local TimeTemperatureDewpointHumidityBarometerVisibilityWind DirectionWind SpeedGust SpeedPrecipitationEventsConditions
4:30 AM48.0 °F35.0 °F50 %30.04 in6.0 miCalm
4:30 AM48.2 °F35.6 °F62 %30.15 inCalmClear
6:30 AM46.4 °F35.6 °F66 %30.06 inCalmClear
7:30 AM51.8 °F39.2 °F62 %30.06 inCalmClear
8:30 AM59.0 °F32.0 °F36 %30.06 inCalmClear
9:30 AM64.4 °F32.0 °F30 %30.06 inCalmClear
10:30 AM66.0 °F29.0 °F15 %29.94 in6.0 miEast (90°)4.5 mph
10:30 AM66.2 °F30.2 °F26 %30.06 inEast (90°)4.6 mphClear
11:30 AM71.6 °F24.8 °F17 %30.04 inCalmClear
12:30 PM73.4 °F23.0 °F15 %30.04 inCalmClear
1:30 PM75.2 °F17.6 °F11 %30.01 inNE (40°)4.6 mphClear
2:30 PM78.8 °F10.4 °F7 %30.01 inEast (100°)9.2 mphClear
3:30 PM78.8 °F21.2 °F12 %29.98 inCalmClear
4:30 PM79.0 °F24.0 °F6 %29.86 in6.0 miCalmClear
4:30 PM78.8 °F23.0 °F13 %29.98 inCalmClear
5:30 PM78.8 °F21.2 °F12 %29.98 inCalmClear
6:30 PM77.0 °F19.4 °F12 %29.95 inWNW (300°)9.2 mphClear
7:30 PM71.6 °F32.0 °F23 %29.98 inWNW (300°)9.2 mphClear
8:30 PM68.0 °F39.2 °F35 %30.01 inWNW (300°)16.1 mphClear
9:30 PM66.2 °F39.2 °F37 %30.01 inCalmClear
10:30 PM62.6 °F44.6 °F52 %30.01 inCalmClear
Hourly data recorded from 40723, located miles away from Bojnurd, Iran







STORIES FROM OUR PARTNERS